FW9856 Weather Reports


time (UTC)temp
C
wind
direction
speed
KPH
gust
KPH
rain 1hr
cm
rain 24hr
cm
rain mn
cm
humidity
%
barometer
mb
20260509111519 10 183 3.2 12.9 0.00 0.00 0.00 92 1004.6
20260509110022 10 190 3.2 11.3 0.00 0.00 0.00 93 1004.4
20260509104524 10 175 1.6 14.5 0.00 0.00 0.00 93 1004.7
20260509103009 10 202 1.6 17.7 0.00 0.00 0.00 92 1004.7
20260509101515 10 192 3.2 9.7 0.00 0.00 0.00 92 1004.7
20260509100028 10 194 4.8 9.7 0.00 0.00 0.00 92 1004.9
20260509094525 10 181 1.6 9.7 0.00 0.00 0.00 92 1005.2
20260509093026 10 192 1.6 9.7 0.00 0.00 0.00 92 1005.3
20260509091518 10 198 1.6 8.0 0.00 0.00 0.00 92 1005.4
20260509090016 10 190 0.0 6.4 0.00 0.00 0.00 91 1005.2
20260509084528 10 196 1.6 6.4 0.00 0.00 0.00 91 1005.2
20260509083024 10 187 1.6 6.4 0.00 0.00 0.00 91 1005.1
20260509081526 10 196 3.2 8.0 0.00 0.00 0.00 91 1005.1
20260509080023 10 211 1.6 4.8 0.00 0.00 0.00 90 1005.2
20260509074518 10 218 1.6 4.8 0.00 0.00 0.00 90 1005.4
20260509073046 10 220 0.0 6.4 0.00 0.00 0.00 90 1005.4
20260509071527 10 195 0.0 4.8 0.00 0.00 0.00 89 1005.5
20260509070030 10 194 0.0 6.4 0.00 0.00 0.00 89 1005.5
20260509064515 11 199 1.6 6.4 0.00 0.00 0.00 88 1005.8
20260509063025 11 183 1.6 6.4 0.00 0.00 0.00 88 1006.0
20260509061524 11 195 1.6 6.4 0.00 0.00 0.00 88 1006.1
20260509060026 11 196 3.2 9.7 0.00 0.00 0.00 87 1006.2
20260509054518 11 232 0.0 11.3 0.00 0.00 0.00 87 1006.2
20260509053018 12 229 4.8 19.3 0.00 0.00 0.00 86 1006.3
20260509051501 12 184 3.2 12.9 0.00 0.00 0.00 86 1006.2
20260509050006 12 205 3.2 14.5 0.00 0.00 0.00 85 1006.4
20260509044513 12 198 3.2 11.3 0.00 0.00 0.00 84 1006.5
20260509043016 12 216 1.6 9.7 0.00 0.00 0.00 84 1006.6
20260509041514 12 198 4.8 9.7 0.00 0.00 0.00 83 1006.6
20260509040022 13 192 3.2 8.0 0.00 0.00 0.00 82 1006.8
20260509034508 13 212 1.6 12.9 0.00 0.00 0.00 81 1007.0
20260509033012 13 190 3.2 12.9 0.00 0.00 0.00 79 1006.8
20260509031518 13 179 4.8 14.5 0.00 0.00 0.00 78 1007.0
20260509030020 13 192 3.2 9.7 0.00 0.00 0.00 77 1007.0
20260509024526 14 186 0.0 11.3 0.00 0.00 0.00 76 1007.1
20260509023014 14 204 1.6 14.5 0.00 0.00 0.00 75 1007.1
20260509021517 14 187 3.2 11.3 0.00 0.00 0.00 76 1007.0
20260509020013 15 196 1.6 9.7 0.00 0.00 0.00 75 1006.8
20260509014519 15 182 3.2 11.3 0.00 0.00 0.00 74 1006.6
20260509013042 15 184 4.8 14.5 0.00 0.00 0.00 73 1006.7
20260509011506 16 234 3.2 14.5 0.00 0.00 0.00 71 1006.7
20260509010023 16 186 1.6 4.8 0.00 0.00 0.00 68 1006.5
20260509004554 16 186 0.0 3.2 0.00 0.00 0.00 68 1006.5
20260509003027 16 186 0.0 6.4 0.00 0.00 0.00 66 1006.4
20260509001527 17 177 0.0 11.3 0.00 0.00 0.00 65 1006.5
20260509000007 17 168 4.8 14.5 0.00 0.00 0.00 64 1006.6
20260508234513 17 169 4.8 12.9 0.00 0.00 0.00 64 1006.5
20260508233020 17 168 4.8 12.9 0.00 0.05 0.00 65 1006.6
20260508231523 17 190 3.2 16.1 0.00 0.10 0.00 66 1006.6
20260508230039 18 225 4.8 17.7 0.00 0.10 0.00 64 1006.6
20260508224509 17 182 3.2 14.5 0.00 0.10 0.00 66 1006.6
20260508223021 18 173 9.7 16.1 0.00 0.10 0.00 64 1006.7
20260508221528 18 204 6.4 16.1 0.00 0.10 0.00 61 1006.7
20260508220026 18 173 3.2 9.7 0.00 0.10 0.00 62 1006.7
20260508214530 18 186 3.2 9.7 0.00 0.10 0.00 61 1006.8
20260508213013 18 162 4.8 11.3 0.00 0.10 0.00 62 1006.9
20260508211519 18 98 4.8 11.3 0.00 0.10 0.00 63 1006.9
20260508210020 18 250 0.0 8.0 0.00 0.10 0.00 62 1007.0
20260508204528 18 163 3.2 8.0 0.00 0.10 0.00 67 1007.1
20260508203008 17 132 1.6 9.7 0.00 0.10 0.00 65 1007.6
20260508201516 17 188 4.8 11.3 0.00 0.10 0.00 64 1007.8
20260508200004 17 202 1.6 9.7 0.00 0.10 0.00 64 1008.0
20260508194504 17 184 3.2 12.9 0.00 0.10 0.00 62 1008.1
20260508193008 17 188 3.2 11.3 0.00 0.10 0.00 63 1008.1
20260508191514 17 178 3.2 9.7 0.00 0.10 0.00 63 1008.3
20260508190015 17 126 4.8 14.5 0.00 0.10 0.00 65 1008.5
20260508184504 17 113 3.2 11.3 0.00 0.10 0.00 66 1008.7
20260508183006 17 199 6.4 11.3 0.00 0.10 0.00 65 1008.8
20260508181543 17 149 1.6 12.9 0.00 0.10 0.00 67 1009.0
20260508180012 16 130 0.0 4.8 0.00 0.10 0.00 66 1009.0
20260508174518 17 240 3.2 12.9 0.00 0.10 0.00 66 1009.4
20260508173004 17 284 3.2 9.7 0.00 0.10 0.00 68 1009.6
20260508171508 16 159 4.8 8.0 0.00 0.10 0.00 70 1009.9
20260508170014 16 173 1.6 9.7 0.00 0.10 0.00 71 1010.2
20260508164518 16 140 1.6 6.4 0.00 0.10 0.00 71 1010.4
20260508163020 16 182 4.8 11.3 0.00 0.10 0.00 72 1010.7
20260508161506 16 192 4.8 9.7 0.00 0.10 0.00 70 1010.7
20260508160015 15 192 0.0 8.0 0.00 0.10 0.00 72 1010.8
20260508154513 15 184 4.8 9.7 0.00 0.10 0.00 72 1010.9
20260508153018 15 194 3.2 9.7 0.00 0.10 0.00 72 1011.1
20260508151530 15 192 6.4 22.5 0.00 0.10 0.00 74 1011.1
20260508150011 15 126 3.2 8.0 0.00 0.10 0.00 78 1011.3
20260508144519 14 181 1.6 8.0 0.00 0.10 0.00 80 1011.3
20260508143013 13 186 3.2 11.3 0.00 0.10 0.00 82 1011.4
20260508141521 13 171 1.6 11.3 0.00 0.10 0.00 82 1011.4
20260508140024 12 185 1.6 4.8 0.00 0.10 0.00 84 1011.4
20260508134507 11 185 1.6 6.4 0.00 0.10 0.00 86 1011.4
20260508133036 11 160 3.2 6.4 0.00 0.10 0.00 88 1011.4
20260508131519 10 209 0.0 3.2 0.00 0.10 0.00 88 1011.6
20260508130021 10 213 0.0 0.0 0.00 0.10 0.00 89 1011.4
20260508124530 9 213 0.0 0.0 0.00 0.10 0.00 90 1011.6
20260508123026 8 213 0.0 0.0 0.00 0.10 0.00 91 1011.8
20260508121516 8 213 0.0 0.0 0.00 0.10 0.00 91 1011.9
20260508120019 8 213 0.0 0.0 0.00 0.10 0.00 90 1011.8
20260508114525 7 216 0.0 0.0 0.00 0.10 0.00 91 1011.4
20260508113028 7 216 0.0 0.0 0.00 0.10 0.00 91 1011.6